Weather History for KTRL - October, 2012

Change the Weather History Date:

Wednesday, October 3, 2012

  Actual Average (KDFW) Record (KDFW)
Temperature  
Mean Temperature 70 °F 72 °F  
Max Temperature 82 °F 82 °F 106 °F (1951)
Min Temperature 57 °F 61 °F 44 °F (1961)
Degree Days  
Heating Degree Days 0 1  
Month to date heating degree days 3  
Since 1 July heating degree days 9  
Cooling Degree Days 4 7  
Month to date cooling degree days 23  
Year to date cooling degree days 2600  
Growing Degree Days 20 (Base 50)    
Moisture  
Dew Point 54 °F    
Average Humidity 62    
Maximum Humidity 90    
Minimum Humidity 34    
Precipitation  
Precipitation 0.00 in 0.09 in 2.05 in (1971)
Month to date precipitation 0.28  
Year to date precipitation 26.94  
Snow  
Snow 0.00 in 0.00 in 0.00 in ()
Month to date snowfall 0.0  
Since 1 July snowfall 0.0  
Since 1 September snowfall 0.0  
Snow Depth -    
Sea Level Pressure  
Sea Level Pressure 29.98 in    
Wind  
Wind Speed 3 mph (SSE)    
Max Wind Speed 14 mph    
Max Gust Speed 18 mph    
Visibility 10 miles    
Events      
T = Trace of Precipitation, MM = Missing Value Source: NWS Daily Summary

Daily Weather History Graph

Daily Weather History Graph

Search for Another Location

Airport or City:

Trip Planner

Search our weather history database for the weather conditions in past years. The results will help you decide how hot, cold, wet, or windy it might be!

Date:

Astronomy

Oct. 03, 2012 Rise Set
Actual Time 7:20 AM CDT 7:06 PM CDT
Civil Twilight 6:56 AM CDT 7:30 PM CDT
Nautical Twilight 6:27 AM CDT 7:59 PM CDT
Astronomical Twilight 5:59 AM CDT 8:28 PM CDT
Moon 9:13 PM CDT (10/3) 10:32 AM CDT (10/3)
Length of Visible Light 12h 34m
Length of Day
11h 45m
Waning Gibbous, 88% of the Moon is Illuminated
Oct 3
Waning Gibbous
Oct 8
Last Quarter
Oct 15
New
Oct 21
First Quarter
Oct 29
Full

Hourly Weather History & Observations

Time (CDT) Temp. Heat Index Dew Point Humidity Pressure Visibility Wind Dir Wind Speed Gust Speed Precip Events Conditions
12:53 AM 62.1 °F - 55.9 °F 80% 29.95 in 10.0 mi Calm Calm - N/A   Clear
1:53 AM 62.1 °F - 55.9 °F 80% 29.95 in 10.0 mi Calm Calm - N/A   Clear
2:53 AM 61.0 °F - 55.9 °F 83% 29.96 in 10.0 mi Calm Calm - N/A   Clear
3:53 AM 61.0 °F - 55.9 °F 83% 29.95 in 10.0 mi Calm Calm - N/A   Clear
4:53 AM 59.0 °F - 55.0 °F 87% 29.96 in 10.0 mi Calm Calm - N/A   Clear
5:53 AM 59.0 °F - 55.0 °F 87% 29.97 in 10.0 mi Calm Calm - N/A   Clear
6:53 AM 57.9 °F - 55.0 °F 90% 29.98 in 10.0 mi Calm Calm - N/A   Clear
7:53 AM 57.9 °F - 55.0 °F 90% 29.99 in 10.0 mi Calm Calm - N/A   Clear
8:53 AM 64.0 °F - 57.9 °F 80% 30.01 in 10.0 mi SSE 3.5 mph - N/A   Clear
9:53 AM 69.1 °F - 57.0 °F 65% 30.02 in 10.0 mi South 6.9 mph - N/A   Clear
10:53 AM 75.0 °F - 55.9 °F 51% 30.03 in 10.0 mi South 9.2 mph - N/A   Clear
11:53 AM 78.1 °F - 55.9 °F 46% 30.02 in 10.0 mi SSE 6.9 mph - N/A   Clear
12:53 PM 79.0 °F - 54.0 °F 42% 30.00 in 10.0 mi SSE 11.5 mph 18.4 mph N/A   Clear
1:53 PM 81.0 °F 80.5 °F 54.0 °F 39% 29.98 in 10.0 mi South 10.4 mph - N/A   Scattered Clouds
2:53 PM 81.0 °F - 52.0 °F 36% 29.96 in 10.0 mi South 13.8 mph 18.4 mph N/A   Partly Cloudy
3:53 PM 82.0 °F - 52.0 °F 35% 29.95 in 10.0 mi South 12.7 mph - N/A   Partly Cloudy
5:53 PM 81.0 °F - 50.0 °F 34% 29.96 in 10.0 mi SSE 11.5 mph - N/A   Clear
6:53 PM 77.0 °F - 52.0 °F 42% 29.96 in 10.0 mi SSE 6.9 mph - N/A   Clear
7:53 PM 72.0 °F - 53.1 °F 51% 29.97 in 10.0 mi SE 3.5 mph - N/A   Clear
8:53 PM 71.1 °F - 54.0 °F 55% 29.99 in 10.0 mi SE 5.8 mph - N/A   Clear
9:53 PM 68.0 °F - 54.0 °F 61% 30.01 in 10.0 mi SE 4.6 mph - N/A   Clear
10:53 PM 68.0 °F - 53.1 °F 59% 30.02 in 10.0 mi SE 5.8 mph - N/A   Clear
11:53 PM 68.0 °F - 53.1 °F 59% 30.03 in 10.0 mi SE 5.8 mph - N/A   Clear